TimeEST,TemperatureF,Dew PointF,Humidity,Sea Level PressureIn,VisibilityMPH,Wind Direction,Wind SpeedMPH,Gust SpeedMPH,PrecipitationIn,Events,Conditions,WindDirDegrees,DateUTC
12:53 AM,25.0,17.1,72,30.12,10.0,WNW,6.9,-,N/A,,Overcast,290,2013-03-05 05:53:00
2:53 AM,19.0,14.0,81,30.13,10.0,West,5.8,-,N/A,,Clear,260,2013-03-05 07:53:00
3:53 AM,21.0,16.0,81,30.13,10.0,West,8.1,-,N/A,,Clear,260,2013-03-05 08:53:00
4:50 AM,21.2,15.8,80,30.08,10.0,West,6.9,-,N/A,,Mostly Cloudy,270,2013-03-05 09:50:00
4:53 AM,21.9,16.0,78,30.14,10.0,West,5.8,-,N/A,,Mostly Cloudy,270,2013-03-05 09:53:00
5:53 AM,21.0,15.1,78,30.14,10.0,West,5.8,-,N/A,,Scattered Clouds,260,2013-03-05 10:53:00
6:53 AM,19.4,12.2,74,30.08,10.0,WSW,4.6,-,N/A,,Clear,240,2013-03-05 11:53:00
7:02 AM,17.6,14.0,86,30.08,10.0,WSW,6.9,-,N/A,,Partly Cloudy,240,2013-03-05 12:02:00
7:53 AM,21.2,17.6,86,30.08,10.0,West,4.6,-,N/A,,Scattered Clouds,260,2013-03-05 12:53:00
8:53 AM,26.1,19.0,75,30.13,10.0,Calm,Calm,-,N/A,,Scattered Clouds,0,2013-03-05 13:53:00
9:16 AM,26.6,19.4,74,30.08,10.0,NW,3.5,-,N/A,,Mostly Cloudy,320,2013-03-05 14:16:00
9:53 AM,27.0,18.0,69,30.12,10.0,NE,3.5,-,N/A,,Mostly Cloudy,40,2013-03-05 14:53:00
10:53 AM,28.0,19.0,69,30.11,10.0,Calm,Calm,-,N/A,,Mostly Cloudy,0,2013-03-05 15:53:00
11:53 AM,28.9,19.0,67,30.11,10.0,Calm,Calm,-,N/A,,Mostly Cloudy,0,2013-03-05 16:53:00
12:12 PM,28.4,19.4,69,30.06,10.0,North,3.5,-,N/A,,Mostly Cloudy,360,2013-03-05 17:12:00
12:53 PM,30.9,19.9,64,30.10,10.0,North,5.8,-,N/A,,Mostly Cloudy,10,2013-03-05 17:53:00
1:53 PM,32.0,19.9,61,30.07,10.0,ENE,4.6,-,N/A,,Mostly Cloudy,60,2013-03-05 18:53:00
2:14 PM,30.2,21.2,69,30.02,10.0,Variable,3.5,-,N/A,,Mostly Cloudy,0,2013-03-05 19:14:00
2:53 PM,32.0,21.0,64,30.07,10.0,ENE,5.8,-,N/A,,Mostly Cloudy,70,2013-03-05 19:53:00
3:24 PM,32.0,21.2,64,30.00,10.0,NE,12.7,-,N/A,,Scattered Clouds,50,2013-03-05 20:24:00
3:53 PM,30.9,21.9,69,30.04,10.0,NNE,12.7,-,N/A,,Partly Cloudy,30,2013-03-05 20:53:00
4:53 PM,30.9,21.9,69,30.02,10.0,ENE,13.8,-,N/A,,Partly Cloudy,60,2013-03-05 21:53:00
5:53 PM,28.9,21.9,75,30.03,10.0,ENE,13.8,-,N/A,,Partly Cloudy,60,2013-03-05 22:53:00
6:53 PM,28.0,21.9,78,30.03,10.0,ENE,17.3,-,N/A,,Scattered Clouds,70,2013-03-05 23:53:00
7:53 PM,27.0,21.9,81,30.01,10.0,ENE,15.0,-,N/A,,Clear,70,2013-03-06 00:53:00
8:53 PM,27.0,21.9,81,30.01,10.0,ENE,18.4,24.2,N/A,,Partly Cloudy,70,2013-03-06 01:53:00
9:53 PM,27.0,21.0,78,29.99,10.0,East,16.1,-,N/A,,Clear,80,2013-03-06 02:53:00
10:53 PM,27.0,21.0,78,29.99,10.0,East,15.0,-,N/A,,Clear,80,2013-03-06 03:53:00
11:53 PM,27.0,21.0,78,29.98,10.0,East,12.7,-,N/A,,Clear,80,2013-03-06 04:53:00